DLA8EK EDDH-EDDF

Flight info

Callsign DLA8EK
Flight time N/A
Altitude 30000
Route AMLUH2G AMLUH M852 DENIX DCT RIMET/N0461F310 T157 KOKEB/N0418F230 T157 KERAX KERAX5D
Aircraft E195/M-SDE3GILORVW/S

Departure

Time 2026-04-22 16:50
Airport Hamburg Helmut Schmidt Airport (EDDH)

Arrival

Time N/A
Airport Frankfurt Main Airport (EDDF)
Time Latitude Longitude Altitude Speed Heading
2026-04-22 16:29 53.63450 10.00314 42 ft 0 kts 86°
2026-04-22 16:43 53.63450 10.00308 42 ft 2 kts 86°
2026-04-22 16:43 53.63449 10.00283 42 ft 2 kts 86°
2026-04-22 16:43 53.63448 10.00258 41 ft 2 kts 86°
2026-04-22 16:44 53.63451 10.00234 41 ft 2 kts 128°
2026-04-22 16:44 53.63463 10.00217 41 ft 2 kts 161°
2026-04-22 16:44 53.63471 10.00215 41 ft 1 kts 181°
2026-04-22 16:44 53.63477 10.00215 41 ft 0 kts 176°
2026-04-22 16:46 53.63476 10.00215 41 ft 0 kts 176°
2026-04-22 16:46 53.63463 10.00216 41 ft 3 kts 175°
2026-04-22 16:46 53.63432 10.00221 40 ft 5 kts 175°
2026-04-22 16:47 53.63384 10.00226 39 ft 7 kts 176°
2026-04-22 16:47 53.63321 10.00234 38 ft 9 kts 175°
2026-04-22 16:47 53.63250 10.00242 38 ft 10 kts 176°
2026-04-22 16:47 53.63168 10.00251 37 ft 12 kts 176°
2026-04-22 16:48 53.63077 10.00259 37 ft 12 kts 185°
2026-04-22 16:48 53.62997 10.00186 37 ft 13 kts 213°
2026-04-22 16:48 53.62911 10.00092 36 ft 13 kts 212°
2026-04-22 16:48 53.62852 10.00009 34 ft 9 kts 240°
2026-04-22 16:49 53.62841 9.99962 33 ft 0 kts 251°
2026-04-22 16:49 53.62838 9.99946 33 ft 3 kts 250°
2026-04-22 16:49 53.62820 9.99881 32 ft 8 kts 244°
2026-04-22 16:49 53.62838 9.99773 30 ft 13 kts 329°
2026-04-22 16:50 53.63030 9.99605 29 ft 64 kts 332°
2026-04-22 16:50 53.63628 9.99090 34 ft 127 kts 332°
2026-04-22 16:50 53.64560 9.98302 215 ft 160 kts 332°
2026-04-22 16:50 53.65572 9.97459 834 ft 168 kts 332°
2026-04-22 16:51 53.66574 9.96591 1650 ft 168 kts 332°
2026-04-22 16:51 53.67675 9.95635 2225 ft 189 kts 333°
2026-04-22 16:51 53.68935 9.94692 2795 ft 212 kts 352°
2026-04-22 16:51 53.70427 9.94684 3710 ft 219 kts 10°
2026-04-22 16:52 53.71693 9.95940 4724 ft 215 kts 49°
2026-04-22 16:52 53.72489 9.98005 4944 ft 215 kts 56°
2026-04-22 16:52 53.73249 10.00196 5199 ft 215 kts 56°
2026-04-22 16:52 53.74009 10.02446 5714 ft 232 kts 64°
2026-04-22 16:53 53.74165 10.05211 6427 ft 254 kts 101°
2026-04-22 16:53 53.73281 10.07886 7005 ft 278 kts 126°
2026-04-22 16:53 53.72116 10.10558 7813 ft 286 kts 121°
2026-04-22 16:53 53.71052 10.13362 8761 ft 289 kts 118°
2026-04-22 16:54 53.70029 10.16242 9750 ft 289 kts 117°
2026-04-22 16:54 53.68990 10.19079 10544 ft 292 kts 127°
2026-04-22 16:54 53.67309 10.21071 11293 ft 308 kts 159°
2026-04-22 16:54 53.65189 10.21795 11973 ft 319 kts 167°
2026-04-22 16:55 53.62978 10.22601 12625 ft 330 kts 164°
2026-04-22 16:55 53.60756 10.23548 13328 ft 338 kts 162°
2026-04-22 16:55 53.58482 10.24575 14133 ft 343 kts 162°
2026-04-22 16:55 53.56193 10.25632 14998 ft 345 kts 162°
2026-04-22 16:56 53.53893 10.26702 15914 ft 347 kts 161°
2026-04-22 16:56 53.51547 10.27796 16755 ft 350 kts 162°
2026-04-22 16:56 53.49198 10.28892 17541 ft 354 kts 162°
2026-04-22 16:56 53.46828 10.29997 18330 ft 357 kts 162°
2026-04-22 16:57 53.44445 10.31107 19114 ft 361 kts 161°
2026-04-22 16:57 53.42048 10.32222 19905 ft 363 kts 161°
2026-04-22 16:57 53.39618 10.33351 20688 ft 366 kts 161°
2026-04-22 16:57 53.37142 10.34501 21475 ft 369 kts 161°
2026-04-22 16:58 53.35514 10.35256 21982 ft 370 kts 161°
2026-04-22 16:58 53.32196 10.36792 22978 ft 374 kts 161°
2026-04-22 16:58 53.29717 10.37939 23707 ft 376 kts 161°
2026-04-22 16:58 53.27175 10.39113 24276 ft 379 kts 161°
2026-04-22 16:59 53.24633 10.40286 24828 ft 385 kts 161°
2026-04-22 16:59 53.22031 10.41485 25519 ft 388 kts 161°
2026-04-22 16:59 53.19460 10.42667 26235 ft 389 kts 160°
2026-04-22 16:59 53.16859 10.43863 26934 ft 390 kts 160°
2026-04-22 17:00 53.14232 10.45057 27556 ft 394 kts 162°
2026-04-22 17:00 53.08693 10.45516 28725 ft 412 kts 183°
2026-04-22 17:00 53.05883 10.44872 29289 ft 415 kts 181°
2026-04-22 17:01 53.03003 10.44381 29849 ft 418 kts 180°
2026-04-22 17:01 53.00116 10.43954 30296 ft 421 kts 180°
2026-04-22 17:01 52.97131 10.43538 30327 ft 437 kts 180°
2026-04-22 17:01 52.94072 10.43117 30339 ft 452 kts 180°
2026-04-22 17:02 52.90877 10.42680 30336 ft 467 kts 180°
2026-04-22 17:02 52.87638 10.42238 30328 ft 480 kts 180°
2026-04-22 17:02 52.84280 10.41780 30334 ft 491 kts 180°
2026-04-22 17:02 52.80875 10.41315 30325 ft 485 kts 180°